User: anonymous   Login
Location: Albany
(35.0000°S, 118.0000°E)
Time: 11:57:53
(UTC-04:00)
Language:

Radarsat Rocket - Orbit

View from above orbital plane
View from above orbital plane
View from above satellite
View from above satellite

Ground track
Ground track

The orbit data is extracted from the following two-line orbital elements,

1 23711U 95059B   15117.51346260  .00000015  00000-0  12249-3 0  9991
2 23711 100.4840 103.3164 0367411 288.2052 231.8061 13.12667062933235
Epoch (UTC): 27 April 2015 12:19:23
Eccentricity: 0.0367411
inclination: 100.4840°
perigee height: 934 km
apogee height: 1492 km
right ascension of ascending node: 103.3164°
argument of perigee: 288.2052°
revolutions per day: 13.12667062
mean anomaly at epoch: 231.8061°
orbit number at epoch: 93323

The dashed part of the orbit path shows where the satellite is in the earth's shadow,  

DLR